Wells Aircraft, Inc. Hutchinson Municipal
(888) 496-5545
800 Airport Road
Hutchinson, KS 67501
(change)
Av Fuel Aviation Fuel Jet A: $5.04
100LL: $4.96
Prices current
Jun 11, 2018

Location

Wells Aircraft is located on the south end of the Hutchinson Municipal Airport (KHUT), in Hutchinson, Kansas.

Wells Aircraft, Inc.
800 Airport Road
Hutchinson, KS 67501
Map
Wells Location at KHUT

Quick Links


AirNav Information
(KHUT)

Hutchinson Weather

Hutchinson (KHUT)
Airport Diagram

Additional Resources

They say, "if you don't like the weather in Kansas, wait five minutes and it'll change." Be prepared with these aviation resources.

KHUT 190152Z 17014G23KT 10SM CLR 29/21 A2993 RMK AO2 SLP108 T02890211 $                KHUT 190152Z 17014G23KT 10SM CLR 29/21 A2993 RMK AO2 SLP108 T02890211 $                KHUT 190152Z 17014G23KT 10SM CLR 29/21 A2993 RMK AO2 SLP108 T02890211 $                KHUT 190152Z 17014G23KT 10SM CLR 29/21 A2993 RMK AO2 SLP108 T02890211 $                KHUT 190152Z 17014G23KT 10SM CLR 29/21 A2993 RMK AO2 SLP108 T02890211 $                KHUT 190152Z 17014G23KT 10SM CLR 29/21 A2993 RMK AO2 SLP108 T02890211 $                
 
 
Cirrus Aircraft